Home   Weather   Aqtobe   Past weeks

Flag for Kazakhstan Past Weather in Aqtobe, Kazakhstan — Yesterday and Last 2 Weeks

Now
75 °F

Scattered clouds.


Feels Like: 78 °F
Forecast: 69 / 94 °F
Wind: 3 mph from North

Location: Aktjubinsk

Current Time: Jul 22, 2017 at 9:53:20 am

Latest Report: Jul 22, 2017 at 9:00 am


Visibility: N/A

Pressure: 29.86 "Hg

Humidity: 57%

Dew Point: 59 °F

Location of AqtobeLocation

Past Weather in Aqtobe — Graph

°F

Aqtobe Temperature Yesterday

Maximum temperature yesterday: 93 °F (at 4:00 pm)
Minimum temperature yesterday: 70 °F (at 3:30 am)
Average temperature yesterday: 81 °F

High & Low Weather Summary for the Past Weeks

 TemperatureHumidityPressure
High93 °F (Jul 20, 1:30 pm)94% (Jul 9, 5:00 am)30.07 "Hg (Jul 9, 5:00 am)
Low48 °F (Jul 14, 5:30 am)20% (Jul 14, 6:30 pm)29.71 "Hg (Jul 8, 6:30 pm)
Average71 °F50%29.92 "Hg
* Reported Jul 7 8:00 am — Jul 22 8:30 am, Aqtobe. Weather by CustomWeather, © 2017

Note: Actual official high and low records may vary slightly from our data, if they occured in-between our weather recording intervals... More about our weather records

Advertising

Aqtobe Weather History for the Previous 24 Hours

Scroll right to see more
 ConditionsComfort  
Time TempWeatherWind HumidityBarometerVisibility
8:30 am
Sat, Jul 22
75 °FScattered clouds.1 mph54%29.83 "HgN/A
8:00 am75 °FScattered clouds.6 mph57%29.83 "HgN/A
7:30 am73 °FScattered clouds.6 mph65%29.83 "HgN/A
7:00 am75 °FSprinkles. Scattered clouds.3 mph54%29.83 "HgN/A
6:30 am75 °FScattered clouds.1 mph47%29.83 "HgN/A
6:00 am77 °FScattered clouds.3 mph44%29.83 "HgN/A
5:30 am77 °FScattered clouds.3 mph42%29.83 "HgN/A
5:00 am77 °FPassing clouds.6 mph44%29.83 "HgN/A
4:30 am77 °FPassing clouds.6 mph44%29.83 "HgN/A
3:30 am75 °FClear.1 mph50%29.83 "Hg10 mi
3:00 am75 °FClear.3 mph47%29.83 "Hg10 mi
2:30 am75 °FClear.3 mph47%29.83 "Hg10 mi
1:30 am77 °FPassing clouds.6 mph42%29.83 "HgN/A
1:00 am73 °FPassing clouds.3 mph50%29.83 "HgN/A
12:30 am73 °FClear.8 mph50%29.83 "Hg10 mi
12:00 am75 °FClear.8 mph47%29.83 "Hg10 mi
11:30 pm
Fri, Jul 21
77 °FPassing clouds.6 mph44%29.83 "HgN/A
10:30 pm81 °FPassing clouds.6 mph39%29.83 "HgN/A
10:00 pm82 °FPassing clouds.6 mph37%29.86 "HgN/A
9:30 pm82 °FPassing clouds.6 mph35%29.86 "HgN/A
9:00 pm84 °FPassing clouds.1 mph31%29.86 "HgN/A
8:30 pm84 °FPassing clouds.6 mph33%29.86 "HgN/A
8:00 pm86 °FPassing clouds.1 mph31%29.86 "HgN/A
7:00 pm90 °FScattered clouds.3 mph26%29.83 "HgN/A
6:30 pm91 °FScattered clouds.6 mph20%29.86 "HgN/A
6:00 pm91 °FScattered clouds.3 mph23%29.86 "HgN/A
5:30 pm91 °FScattered clouds.3 mph21%29.86 "HgN/A
5:00 pm90 °FScattered clouds.13 mph22%29.86 "HgN/A
4:30 pm93 °FPassing clouds.13 mph20%29.86 "HgN/A
4:00 pm93 °FPassing clouds.8 mph21%29.89 "HgN/A
3:30 pm91 °FPassing clouds.8 mph24%29.89 "HgN/A
3:00 pm91 °FSunny.8 mph23%29.89 "Hg10 mi
2:30 pm91 °FSunny.8 mph24%29.89 "Hg10 mi
2:00 pm90 °FPassing clouds.6 mph26%29.89 "HgN/A
1:30 pm90 °FPassing clouds.6 mph26%29.89 "HgN/A
1:00 pm91 °FSunny.3 mph24%29.89 "Hg10 mi
12:30 pm90 °FSunny.8 mph26%29.89 "Hg10 mi
12:00 pm88 °FPassing clouds.6 mph25%29.89 "HgN/A
11:30 am88 °FPassing clouds.6 mph29%29.89 "HgN/A
11:00 am88 °FPassing clouds.6 mph29%29.89 "HgN/A
10:30 am86 °FSunny.6 mph29%29.89 "Hg10 mi
10:00 am84 °FSunny.8 mph33%29.92 "Hg10 mi
9:30 am84 °FSunny.10 mph35%29.92 "Hg10 mi
9:00 am81 °FSunny.10 mph45%29.92 "Hg10 mi
Weather by CustomWeather, © 2017

See weather overviewHow to use our weather pages